Wind_Speed
9 9 10 10 11 10 11 11 12 12 11 9 9 11 12 13 14 14 15 15 16 16 15 15 15 14 14 14 13 14 16 16 16 15 15 16 16 17 17 18 19 21
8 8 8 9 10 10 11 12 12 12 12 12 12 13 14 15 14 15 15 16 16 15 15 15 14 14 13 13 13 13 15 16 16 16 16 17 18 18 19 19 20 22
9 9 10 10 10 11 12 13 13 14 14 14 15 15 16 16 16 15 16 16 17 16 15 15 15 15 15 14 13 13 13 16 17 17 17 18 18 19 20 20 21 22
12 12 13 13 13 14 14 15 16 17 17 18 18 18 18 18 17 17 16 16 17 17 16 16 15 15 16 15 14 13 13 14 16 18 18 18 18 19 19 20 21 22
15 16 17 17 17 18 18 18 19 20 20 21 21 21 21 21 20 19 18 17 17 18 17 17 16 15 16 15 15 14 13 13 15 17 18 18 18 17 18 19 20 22
18 19 20 21 22 22 23 23 23 23 24 24 24 24 24 24 23 22 21 19 18 18 18 18 17 17 17 16 16 16 15 14 14 15 17 18 18 17 17 18 19 22
21 22 23 24 25 26 26 26 26 26 26 26 26 26 25 24 24 23 22 21 20 18 18 19 19 18 18 18 17 17 17 16 15 14 15 16 17 18 18 18 19 21
24 25 27 27 28 28 29 28 28 28 27 27 26 25 25 24 23 23 22 22 21 21 20 20 20 20 19 19 19 18 18 17 17 16 15 15 16 18 18 19 20 21
25 27 29 30 30 30 30 29 28 28 27 26 25 25 24 23 23 22 22 22 22 22 22 22 22 22 21 21 20 19 19 18 18 18 17 17 16 17 18 19 20 22
27 28 29 30 31 31 30 29 27 26 26 26 25 25 24 24 23 22 22 22 22 22 23 24 24 24 23 23 22 21 20 20 19 19 19 19 18 18 19 20 20 22
29 30 30 30 30 29 29 28 27 26 25 25 25 25 25 24 24 23 22 22 22 22 23 24 25 26 26 25 24 23 22 21 21 21 21 20 20 19 20 20 21 21
34 34 34 32 29 28 27 26 26 26 25 25 26 25 25 25 25 24 23 22 22 22 23 24 25 26 27 27 27 26 25 24 22 22 22 22 20 20 20 21 21 21
37 36 36 34 31 28 27 26 25 25 25 26 26 26 26 26 26 25 24 23 22 21 22 23 25 26 28 28 29 28 27 26 24 24 24 23 22 21 21 22 23 23
37 36 36 36 34 31 29 28 26 25 25 25 25 26 26 26 26 26 25 23 23 22 22 23 24 26 27 29 29 29 28 28 27 26 26 25 24 23 23 23 23 24
38 37 37 37 36 34 32 29 27 25 24 24 24 25 25 25 26 26 26 25 24 22 22 22 23 25 27 28 30 30 30 30 29 28 27 27 26 25 25 24 24 24
39 38 38 37 37 35 33 31 28 26 25 24 23 24 24 25 25 26 26 26 25 23 22 22 23 24 26 28 29 31 32 32 32 31 29 28 27 27 26 25 25 25
39 38 38 37 35 34 32 31 29 27 26 25 24 24 24 24 25 25 25 26 25 24 24 23 23 24 26 27 28 30 32 32 33 33 32 30 29 28 27 26 26 26
39 37 35 33 31 31 30 30 30 29 28 27 26 25 24 24 24 25 25 25 25 24 24 24 24 25 26 27 27 29 31 32 32 33 33 32 30 28 28 28 28 27
36 34 33 30 29 28 28 29 29 29 29 28 27 26 25 24 23 24 24 25 25 25 24 23 24 26 27 28 28 28 30 30 31 32 33 33 32 29 28 29 29 28
34 32 31 30 28 27 27 28 28 28 28 28 28 27 25 24 23 23 23 25 25 26 25 23 23 25 27 28 29 29 29 29 29 30 31 32 33 31 28 29 30 30
33 32 30 29 29 28 27 27 27 26 27 27 27 27 25 24 23 23 23 24 25 26 27 25 24 25 26 28 30 31 30 29 28 28 29 30 32 31 29 29 31 31
33 33 31 30 30 28 27 28 28 28 28 27 27 26 25 24 23 23 23 24 26 26 27 27 27 26 26 26 29 31 31 30 29 28 28 28 29 30 30 29 29 29
33 33 32 32 30 28 28 30 30 30 29 28 27 27 26 25 25 24 23 23 24 25 26 27 27 28 27 25 27 29 30 30 29 29 28 28 27 28 29 28 27 27
32 33 32 32 31 30 31 31 31 31 30 28 27 27 27 27 26 24 23 22 22 23 25 26 26 27 28 26 26 28 29 29 29 29 28 28 27 27 28 27 26 27
31 31 31 30 30 30 30 30 29 29 28 28 27 27 26 25 24 23 22 21 21 21 23 24 24 25 26 27 27 28 28 28 29 29 28 28 27 27 26 26 25 26
27 27 27 27 27 27 27 26 26 25 25 25 25 24 23 21 21 22 22 20 19 20 20 21 22 23 23 25 26 27 27 27 28 28 29 29 28 27 26 26 25 24
Wind_Direction
1 360 357 353 354 352 347 344 342 341 340 336 332 333 335 336 335 334 333 329 325 322 320 321 322 320 317 315 303 279 266 266 267 268 267 264 263 262 258 249 240 234
356 355 352 348 346 344 340 337 334 332 330 325 320 320 323 325 326 325 325 325 321 318 314 313 314 315 313 312 309 291 271 265 266 267 267 267 266 263 259 252 243 236
346 345 344 343 340 337 335 333 332 329 326 322 318 317 318 318 319 318 317 318 318 314 310 306 306 309 311 312 312 304 285 271 267 267 268 269 270 267 261 254 247 241
337 336 335 335 333 332 330 327 327 326 324 322 320 319 317 315 314 313 312 312 312 311 307 301 299 301 305 308 309 307 297 282 271 266 265 268 271 269 262 255 249 244
329 330 329 328 327 326 325 323 321 320 319 319 318 316 315 314 312 309 308 307 305 306 305 299 295 293 296 300 301 300 297 287 277 269 265 267 270 268 263 258 252 245
326 327 326 326 326 325 323 321 319 318 316 315 313 312 310 309 308 306 304 301 298 298 299 297 294 291 290 292 292 292 291 287 281 274 268 266 266 266 265 263 258 250
327 327 326 325 325 324 324 322 320 318 316 314 311 309 306 304 303 301 299 296 293 289 287 289 289 288 286 285 285 287 287 286 284 279 273 266 263 263 263 264 261 256
326 327 326 325 324 323 323 323 321 319 316 313 311 308 306 304 300 297 294 292 288 284 280 280 281 281 282 281 280 281 282 284 283 281 277 270 265 264 263 262 262 259
323 325 326 326 325 324 323 321 319 317 314 313 311 309 308 306 302 298 293 289 285 280 277 275 274 276 277 278 277 277 277 278 279 278 276 272 269 267 266 264 262 260
321 323 324 324 323 322 322 320 317 314 312 311 311 311 310 309 306 302 296 290 284 278 274 271 270 271 272 274 274 273 272 273 273 274 273 272 270 269 268 267 264 260
320 321 322 322 321 320 319 317 315 312 309 309 309 310 311 311 309 306 301 294 286 279 273 269 266 266 267 269 270 270 270 270 270 269 269 270 269 268 267 267 266 262
321 322 322 322 321 321 318 315 313 310 308 308 308 310 311 311 310 308 305 299 291 283 275 270 266 263 263 264 267 268 268 268 269 269 268 266 266 265 264 264 264 263
320 320 320 320 320 321 319 317 314 311 309 309 308 309 309 308 308 307 305 302 297 289 280 273 268 264 262 261 262 264 266 266 266 266 266 264 263 263 262 261 260 260
318 318 318 318 318 319 319 318 316 313 311 309 307 307 307 306 305 304 303 301 299 294 287 279 272 268 265 262 261 261 262 263 263 262 262 262 262 261 260 260 260 258
317 318 318 318 318 318 318 317 315 313 312 309 307 306 304 303 302 301 300 299 298 296 291 285 278 273 269 265 263 261 260 261 262 262 261 261 261 260 258 259 261 260
317 317 317 316 317 317 316 316 314 313 311 309 307 305 303 301 300 298 297 297 296 295 292 288 283 277 271 267 265 264 263 262 262 262 262 261 260 259 258 258 259 260
316 317 316 316 315 315 315 314 313 312 311 309 308 305 303 301 299 297 296 295 295 294 292 290 285 279 275 271 267 266 264 262 262 262 262 262 261 260 260 259 257 257
317 317 316 316 315 314 314 313 312 311 311 310 309 306 304 301 299 297 296 294 294 293 291 288 285 281 278 274 270 267 265 263 262 262 262 262 262 261 261 261 259 257
317 316 316 315 314 313 313 312 311 311 310 309 308 307 305 301 298 297 295 294 294 293 290 288 285 282 279 276 273 270 268 266 264 264 263 262 261 260 261 261 261 260
316 315 314 313 311 311 311 311 311 310 309 308 307 306 304 302 298 296 295 293 292 291 289 287 284 281 280 278 276 272 269 268 267 267 266 265 262 260 260 260 261 261
313 313 312 310 309 309 309 309 309 308 307 307 306 305 304 303 300 297 294 292 291 290 289 287 283 279 277 277 276 274 271 269 268 268 268 267 266 264 262 260 261 261
311 310 310 309 309 308 307 306 306 306 305 304 304 304 304 304 303 300 296 292 291 290 289 287 285 282 279 275 273 273 272 270 269 268 267 267 266 265 264 263 262 262
308 308 307 307 306 306 304 304 305 304 304 304 303 303 304 305 304 301 297 292 290 290 288 286 285 283 281 277 272 270 270 270 270 268 267 267 266 265 264 263 263 263
308 307 306 305 304 303 302 302 302 302 303 303 302 302 304 304 305 304 300 294 291 289 288 285 284 283 281 277 273 270 269 268 268 268 268 268 267 266 265 264 263 262
311 310 310 309 307 305 303 302 302 301 301 301 301 303 304 305 306 306 303 299 294 291 289 287 285 283 282 279 274 271 269 267 266 267 267 267 267 266 266 266 265 265
317 316 314 313 311 309 307 306 305 303 301 300 303 305 305 304 306 305 302 299 294 289 287 286 284 281 280 281 279 274 270 267 265 265 265 265 265 265 265 265 265 266
Height
3190 3190 3189 3188 3187 3185 3184 3183 3182 3181 3180 3179 3178 3177 3175 3174 3173 3172 3171 3170 3169 3167 3166 3164 3163 3162 3161 3160 3159 3159 3159 3159 3159 3159 3159 3159 3160 3160 3161 3161 3162 3162
3189 3189 3188 3187 3185 3184 3183 3182 3181 3180 3179 3178 3177 3176 3174 3173 3172 3171 3170 3169 3168 3166 3165 3164 3162 3161 3160 3159 3158 3157 3157 3157 3157 3157 3157 3158 3157 3158 3158 3158 3159 3159
3188 3187 3186 3185 3184 3183 3182 3181 3179 3178 3177 3176 3175 3174 3173 3172 3170 3169 3168 3167 3166 3165 3164 3163 3161 3160 3159 3158 3156 3156 3155 3155 3155 3155 3155 3155 3155 3155 3155 3156 3156 3156
3187 3186 3185 3184 3183 3182 3181 3179 3178 3177 3175 3174 3173 3172 3171 3170 3169 3168 3167 3166 3165 3163 3162 3161 3160 3158 3157 3156 3155 3154 3153 3153 3153 3153 3153 3153 3153 3153 3153 3152 3152 3153
3185 3184 3183 3182 3181 3180 3179 3178 3176 3175 3174 3172 3171 3169 3168 3167 3166 3165 3165 3164 3163 3162 3160 3159 3158 3157 3155 3154 3153 3152 3152 3151 3151 3151 3150 3150 3150 3150 3150 3149 3149 3149
3184 3182 3181 3180 3178 3177 3176 3175 3174 3172 3171 3170 3169 3167 3166 3165 3164 3163 3162 3161 3161 3159 3158 3157 3155 3155 3154 3153 3152 3151 3150 3150 3149 3148 3148 3148 3148 3147 3147 3147 3147 3146
3181 3180 3179 3177 3176 3174 3173 3172 3170 3169 3168 3167 3165 3164 3163 3162 3161 3159 3159 3158 3158 3157 3156 3155 3153 3152 3152 3151 3150 3149 3148 3147 3147 3146 3146 3145 3145 3145 3144 3144 3144 3144
3179 3178 3176 3175 3173 3172 3170 3169 3167 3166 3164 3163 3162 3161 3160 3159 3157 3156 3155 3154 3154 3153 3153 3152 3151 3150 3149 3148 3148 3147 3146 3145 3144 3143 3143 3143 3142 3142 3142 3141 3141 3141
3177 3175 3174 3172 3170 3169 3167 3166 3164 3162 3161 3160 3159 3157 3156 3155 3154 3153 3152 3151 3150 3150 3149 3148 3148 3147 3146 3145 3145 3144 3143 3142 3142 3141 3140 3140 3140 3140 3139 3139 3139 3138
3175 3173 3172 3170 3168 3166 3165 3163 3161 3160 3158 3157 3155 3154 3153 3152 3151 3150 3149 3148 3147 3146 3146 3145 3144 3143 3143 3142 3141 3141 3140 3140 3139 3138 3138 3137 3137 3137 3137 3136 3136 3136
3171 3170 3169 3167 3165 3164 3162 3160 3159 3157 3155 3154 3152 3151 3150 3148 3147 3146 3146 3145 3144 3143 3142 3141 3141 3140 3139 3139 3138 3137 3137 3137 3136 3136 3135 3135 3135 3135 3134 3134 3133 3133
3167 3166 3164 3163 3162 3161 3160 3158 3156 3154 3153 3151 3149 3148 3146 3145 3144 3143 3142 3141 3140 3140 3139 3138 3137 3137 3136 3135 3135 3134 3133 3133 3133 3133 3133 3132 3132 3131 3131 3131 3130 3130
3164 3162 3160 3159 3158 3157 3156 3155 3153 3152 3150 3148 3146 3145 3143 3142 3141 3140 3139 3138 3137 3136 3135 3135 3134 3133 3133 3132 3131 3130 3130 3130 3130 3130 3130 3129 3129 3128 3128 3127 3127 3127
3161 3159 3157 3155 3154 3153 3152 3151 3150 3148 3147 3145 3143 3141 3140 3139 3137 3136 3135 3135 3134 3133 3132 3131 3130 3130 3129 3128 3128 3127 3126 3126 3126 3126 3126 3125 3125 3125 3125 3124 3124 3123
3157 3155 3153 3151 3150 3149 3148 3147 3146 3144 3143 3142 3140 3138 3137 3135 3134 3133 3132 3131 3130 3130 3129 3128 3127 3126 3125 3124 3124 3123 3123 3122 3122 3121 3121 3121 3121 3122 3121 3121 3120 3120
3153 3151 3150 3148 3146 3145 3143 3142 3141 3140 3139 3138 3137 3135 3133 3132 3131 3130 3128 3127 3127 3126 3126 3125 3124 3123 3121 3120 3120 3119 3119 3119 3118 3117 3117 3117 3117 3118 3118 3117 3117 3116
3150 3147 3145 3144 3142 3141 3139 3138 3137 3136 3135 3134 3133 3132 3130 3128 3127 3126 3125 3124 3123 3123 3122 3122 3121 3119 3118 3117 3116 3115 3114 3114 3114 3114 3113 3113 3114 3114 3114 3114 3113 3113
3145 3143 3141 3139 3138 3137 3135 3134 3133 3132 3131 3130 3129 3128 3127 3125 3124 3122 3121 3120 3119 3119 3118 3118 3117 3115 3114 3113 3112 3111 3110 3110 3110 3110 3110 3110 3110 3110 3110 3110 3110 3110
3142 3139 3138 3136 3134 3133 3131 3130 3129 3127 3126 3125 3124 3123 3123 3122 3120 3119 3117 3116 3115 3115 3114 3114 3113 3111 3110 3109 3108 3107 3106 3106 3106 3106 3106 3106 3106 3106 3106 3106 3106 3106
3138 3136 3134 3132 3131 3129 3128 3126 3125 3123 3122 3121 3120 3119 3118 3117 3116 3115 3114 3112 3111 3110 3109 3109 3109 3107 3105 3105 3104 3103 3102 3102 3102 3102 3102 3102 3102 3102 3103 3102 3102 3102
3134 3133 3131 3129 3127 3126 3124 3123 3121 3119 3118 3117 3115 3114 3114 3113 3112 3111 3110 3108 3107 3106 3105 3104 3104 3103 3102 3101 3100 3098 3098 3099 3099 3098 3098 3098 3098 3098 3098 3098 3098 3098
3131 3129 3127 3125 3123 3122 3120 3119 3117 3115 3114 3112 3111 3110 3110 3109 3108 3107 3106 3104 3103 3102 3101 3100 3099 3098 3097 3097 3096 3094 3094 3095 3095 3094 3094 3094 3094 3094 3094 3094 3094 3095
3127 3125 3123 3122 3120 3118 3117 3115 3113 3111 3110 3108 3107 3106 3105 3105 3104 3103 3102 3101 3099 3098 3097 3096 3095 3093 3093 3093 3092 3090 3090 3090 3090 3090 3090 3090 3090 3090 3090 3090 3091 3091
3124 3121 3119 3117 3116 3114 3112 3110 3109 3107 3106 3104 3103 3102 3101 3100 3100 3099 3098 3097 3095 3094 3093 3092 3091 3090 3088 3088 3087 3086 3086 3086 3086 3085 3086 3086 3086 3086 3086 3086 3087 3087
3119 3117 3115 3113 3111 3109 3107 3106 3104 3103 3102 3100 3099 3098 3097 3096 3096 3095 3094 3093 3092 3090 3089 3088 3088 3087 3084 3083 3083 3082 3082 3082 3081 3081 3081 3081 3081 3081 3081 3082 3082 3083
3116 3114 3111 3109 3107 3105 3103 3102 3100 3099 3098 3096 3096 3095 3094 3093 3092 3091 3090 3090 3089 3087 3086 3085 3085 3083 3081 3080 3079 3078 3077 3078 3077 3077 3077 3076 3076 3077 3077 3078 3078 3078